Regional Weather Roundup
Issued by NWS

Home | Current Version | Previous Version | Text Only | Print | Product List | Glossary On
Versions: 1 2 3 4 5 6 7 8 9 10 11 12 13 14 15 16 17 18 19 20 21 22 23 24 25 26 27
000
ASUS44 KLIX 232313
RWRLA
LOUISIANA WEATHER ROUNDUP
NATIONAL WEATHER SERVICE NEW ORLEANS LA
600 PM CDT THU MAR 23 2017

NOTE: "FAIR" INDICATES FEW OR NO CLOUDS BELOW 12,000 FEET WITH NO
      SIGNIFICANT WEATHER AND/OR OBSTRUCTIONS TO VISIBILITY.
      SKY/WX - SKY CONDITION AND SIGNIFICANT WEATHER.
      TMP - AIR TEMPERATURE.    DP   - DEWPOINT TEMPERATURE.
      RH  - RELATIVE HUMIDITY.  PRES - PRESSURE.
      HX  - HEAT INDEX.         WCI  - WIND CHILL INDEX.

*  THESE STATIONS ARE NOT NWS OR FAA STATIONS AND ARE NOT UNDER
   NWS QUALITY CONTROL.

LAZ040-048-061>063-065-066-069-240000-
SOUTHEAST LOUISIANA

CITY           SKY/WX    TMP DP  RH WIND       PRES   REMARKS
N.O. INTL ARPT MOSUNNY   79  64  60 SE10      30.16S
N.O. LAKEFRONT SUNNY     76  67  73 E16       30.17S
N.O. DOWNTOWN*   N/A     80  66  62 VRB7      30.17S
RESERVE*       FAIR      81  66  60 E8        30.15S
SLIDELL        CLOUDY    75  64  68 SE10      30.18S
BATON ROUGE    MOSUNNY   82  62  50 E13       30.12S
BOOTHVILLE     MOSUNNY   73  68  84 E12       30.18S
BELLE CHASSE   MOSUNNY   79  64  61 E8        30.17S
BOGALUSA*      FAIR      83  56  40 S7        30.18S
GALLIANO*      CLEAR     77  58  52 E6        30.16S
NEW ROADS*     FAIR      82  57  41 SE10      30.11S
GONZALES*      FAIR      81  60  50 SE6       30.12F
HAMMOND*       SUNNY     77  63  61 SE12      30.16S
HOUMA*         NOT AVBL
PORT FOURCHON* CLEAR     73  68  83 E10       30.16S

$$

LAZ041-044-053-054-240000-
SOUTHWEST LOUISIANA

CITY           SKY/WX    TMP DP  RH WIND       PRES   REMARKS
LAKE CHARLES   SUNNY     79  57  46 S12       30.11S
LAFAYETTE      SUNNY     83  53  35 S12       30.11F
PATTERSON      SUNNY     78  66  66 S10       30.13F
SALT POINT       N/A     75  66  73 VRB5      30.12F
NEW IBERIA     SUNNY     82  56  40 S10       30.12F
CHENAULT AIRPK SUNNY     81  57  44 S13       30.10F

$$

LAZ027-028-240000-
CENTRAL LOUISIANA

CITY           SKY/WX    TMP DP  RH WIND       PRES   REMARKS
FORT POLK      SUNNY     82  54  38 SE16      30.07F
ALEXANDRIA INT SUNNY     81  53  37 S14       30.07F
ALEXANDRIA     SUNNY     83  47  28 S9        30.09F

$$

LAZ001-002-240000-
NORTHWEST LOUISIANA

CITY           SKY/WX    TMP DP  RH WIND       PRES   REMARKS
SHREVEPORT     SUNNY     84  50  30 S14       30.02F
BARKSDALE AFB  SUNNY     83  47  28 S20G25    30.02F
DTN SHREVEPORT SUNNY     84  48  28 S15G25    30.02F

$$

LAZ014-016-240000-
NORTHEAST LOUISIANA

CITY           SKY/WX    TMP DP  RH WIND       PRES   REMARKS
MONROE         SUNNY     84  48  28 S7        30.07F
TALLULAH       SUNNY     84  50  30 S8        30.09F

$$





USA.gov is the U.S. government's official web portal to all federal, state and local government web resources and services.